AXM5117 WBKK-WMKK

Flight info

Callsign AXM5117
Flight time N/A
Altitude 38000
Route EGENU2F VIDIP M758 IDSEL Y335 PADLI Y343 SAROX SAROX1J
Aircraft A20N/M-SDE2E3FGHIRWXY/LB1

Departure

Time 2026-04-20 12:13
Airport Kota Kinabalu International Airport (WBKK)

Arrival

Time N/A
Airport Kuala Lumpur International Airport (WMKK)
Time Latitude Longitude Altitude Speed Heading
2026-04-20 11:44 5.92568 116.05018 29 ft 0 kts 113°
2026-04-20 11:48 5.92568 116.05017 28 ft 0 kts 113°
2026-04-20 11:53 5.92570 116.05013 32 ft 1 kts 113°
2026-04-20 11:53 5.92572 116.05009 28 ft 1 kts 113°
2026-04-20 11:54 5.92575 116.05001 28 ft 1 kts 119°
2026-04-20 11:54 5.92576 116.04999 28 ft 1 kts 121°
2026-04-20 11:54 5.92581 116.04992 28 ft 1 kts 128°
2026-04-20 11:54 5.92586 116.04986 28 ft 1 kts 134°
2026-04-20 11:55 5.92590 116.04982 28 ft 1 kts 139°
2026-04-20 11:55 5.92596 116.04977 28 ft 1 kts 144°
2026-04-20 11:55 5.92598 116.04976 28 ft 0 kts 146°
2026-04-20 12:06 5.92603 116.04972 28 ft 1 kts 155°
2026-04-20 12:07 5.92611 116.04969 28 ft 1 kts 168°
2026-04-20 12:07 5.92616 116.04968 28 ft 0 kts 179°
2026-04-20 12:08 5.92609 116.04964 28 ft 1 kts 207°
2026-04-20 12:08 5.92590 116.04953 28 ft 5 kts 206°
2026-04-20 12:09 5.92548 116.04934 28 ft 8 kts 204°
2026-04-20 12:09 5.92490 116.04908 28 ft 11 kts 204°
2026-04-20 12:09 5.92413 116.04876 28 ft 10 kts 211°
2026-04-20 12:09 5.92408 116.04808 28 ft 11 kts 296°
2026-04-20 12:10 5.92397 116.04741 28 ft 11 kts 204°
2026-04-20 12:10 5.92317 116.04714 28 ft 14 kts 199°
2026-04-20 12:10 5.92224 116.04671 28 ft 16 kts 204°
2026-04-20 12:10 5.92115 116.04624 28 ft 18 kts 203°
2026-04-20 12:11 5.91997 116.04576 28 ft 19 kts 201°
2026-04-20 12:11 5.91887 116.04529 28 ft 19 kts 204°
2026-04-20 12:11 5.91785 116.04474 28 ft 14 kts 238°
2026-04-20 12:11 5.91808 116.04391 28 ft 13 kts 297°
2026-04-20 12:12 5.91864 116.04330 28 ft 10 kts
2026-04-20 12:12 5.91893 116.04344 28 ft 0 kts 22°
2026-04-20 12:12 5.91894 116.04345 28 ft 5 kts 22°
2026-04-20 12:13 5.92182 116.04466 28 ft 84 kts 23°
2026-04-20 12:13 5.92930 116.04782 53 ft 143 kts 22°
2026-04-20 12:13 5.93552 116.05035 351 ft 150 kts 21°
2026-04-20 12:13 5.94300 116.05315 810 ft 156 kts 20°
2026-04-20 12:14 5.95236 116.05652 1365 ft 160 kts 21°
2026-04-20 12:14 5.96320 116.05869 2056 ft 165 kts 359°
2026-04-20 12:14 5.97400 116.05498 2480 ft 186 kts 323°
2026-04-20 12:14 5.98182 116.04612 2889 ft 204 kts 308°
2026-04-20 12:15 5.98912 116.03500 3244 ft 225 kts 294°
2026-04-20 12:15 5.99153 116.02023 3606 ft 248 kts 264°
2026-04-20 12:15 5.98776 116.00285 4104 ft 269 kts 252°
2026-04-20 12:15 5.98353 115.99065 4544 ft 277 kts 250°
2026-04-20 12:16 5.97460 115.96622 5772 ft 281 kts 250°
2026-04-20 12:16 5.97096 115.95568 6267 ft 283 kts 250°
2026-04-20 12:16 5.96529 115.93822 7064 ft 285 kts 252°
2026-04-20 12:16 5.95941 115.91914 7938 ft 288 kts 252°
2026-04-20 12:17 5.95162 115.89316 9059 ft 292 kts 252°
2026-04-20 12:17 5.94776 115.88017 9630 ft 294 kts 252°
2026-04-20 12:17 5.94257 115.86265 10220 ft 302 kts 252°
2026-04-20 12:17 5.93531 115.83828 10520 ft 329 kts 253°
2026-04-20 12:18 5.93156 115.82569 10649 ft 341 kts 253°
2026-04-20 12:18 5.92462 115.80242 11158 ft 350 kts 253°
2026-04-20 12:18 5.91758 115.77883 11854 ft 354 kts 253°
2026-04-20 12:18 5.91046 115.75499 12566 ft 359 kts 253°
2026-04-20 12:19 5.90325 115.73086 13245 ft 363 kts 253°
2026-04-20 12:19 5.89597 115.70646 13885 ft 367 kts 253°
2026-04-20 12:19 5.88859 115.68176 14511 ft 370 kts 253°
2026-04-20 12:19 5.88118 115.65693 15135 ft 373 kts 253°
2026-04-20 12:20 5.87370 115.63189 15751 ft 376 kts 253°
2026-04-20 12:20 5.86615 115.60660 16329 ft 379 kts 253°
2026-04-20 12:20 5.85855 115.58116 16895 ft 383 kts 253°
2026-04-20 12:20 5.85150 115.55758 17425 ft 386 kts 253°
2026-04-20 12:21 5.84395 115.53234 17969 ft 389 kts 253°
2026-04-20 12:21 5.83684 115.50856 18418 ft 392 kts 253°
2026-04-20 12:21 5.82897 115.48226 18919 ft 394 kts 253°
2026-04-20 12:21 5.82105 115.45580 19404 ft 397 kts 253°
2026-04-20 12:22 5.81309 115.42919 19879 ft 400 kts 253°
2026-04-20 12:22 5.80504 115.40232 20361 ft 402 kts 253°
2026-04-20 12:22 5.79772 115.37789 20798 ft 405 kts 253°
2026-04-20 12:22 5.79098 115.35541 21175 ft 407 kts 252°
2026-04-20 12:23 5.78345 115.33026 21617 ft 409 kts 253°
2026-04-20 12:23 5.77522 115.30282 22083 ft 412 kts 253°
2026-04-20 12:23 5.76764 115.27752 22499 ft 415 kts 253°
2026-04-20 12:23 5.76011 115.25242 22924 ft 417 kts 253°
2026-04-20 12:24 5.75249 115.22702 23315 ft 419 kts 253°
2026-04-20 12:24 5.74555 115.20387 23645 ft 421 kts 253°
2026-04-20 12:24 5.73708 115.17563 24012 ft 424 kts 253°
2026-04-20 12:24 5.72854 115.14718 24383 ft 426 kts 253°
2026-04-20 12:25 5.71995 115.11856 24721 ft 429 kts 253°
2026-04-20 12:25 5.71131 115.08981 25076 ft 432 kts 252°
2026-04-20 12:25 5.70263 115.06087 25426 ft 434 kts 252°
2026-04-20 12:25 5.69390 115.03181 25761 ft 436 kts 252°
2026-04-20 12:26 5.68513 115.00259 26095 ft 439 kts 252°
2026-04-20 12:26 5.67637 114.97342 26419 ft 441 kts 252°
2026-04-20 12:26 5.66822 114.94631 26709 ft 443 kts 252°
2026-04-20 12:26 5.66205 114.92578 26927 ft 445 kts 252°
2026-04-20 12:27 5.65372 114.89808 27220 ft 447 kts 252°
2026-04-20 12:27 5.64471 114.86809 27530 ft 449 kts 252°
2026-04-20 12:27 5.63621 114.83985 27810 ft 451 kts 252°
2026-04-20 12:27 5.62771 114.81157 28087 ft 453 kts 252°
2026-04-20 12:28 5.61824 114.78011 28382 ft 455 kts 252°
2026-04-20 12:28 5.60909 114.74969 28664 ft 457 kts 252°
2026-04-20 12:28 5.59986 114.71903 28944 ft 459 kts 252°
2026-04-20 12:28 5.59122 114.69031 29183 ft 461 kts 252°
2026-04-20 12:29 5.58215 114.66019 29447 ft 463 kts 252°
2026-04-20 12:29 5.57283 114.62923 29707 ft 465 kts 252°
2026-04-20 12:29 5.56407 114.60020 29940 ft 467 kts 252°
2026-04-20 12:29 5.55526 114.57092 30180 ft 468 kts 252°
2026-04-20 12:30 5.54582 114.53961 30427 ft 470 kts 252°
2026-04-20 12:30 5.53635 114.50818 30687 ft 471 kts 252°
2026-04-20 12:30 5.52686 114.47668 30950 ft 472 kts 252°
2026-04-20 12:30 5.51735 114.44514 31253 ft 472 kts 252°
2026-04-20 12:31 5.50786 114.41369 31604 ft 471 kts 252°
2026-04-20 12:31 5.49840 114.38232 31960 ft 469 kts 252°
2026-04-20 12:31 5.48992 114.35420 32259 ft 468 kts 252°
2026-04-20 12:31 5.48340 114.33259 32479 ft 468 kts 252°
2026-04-20 12:32 5.47391 114.30115 32817 ft 467 kts 252°
2026-04-20 12:32 5.46548 114.27322 33114 ft 466 kts 252°
2026-04-20 12:32 5.45700 114.24518 33409 ft 465 kts 252°
2026-04-20 12:32 5.44834 114.21648 33695 ft 464 kts 252°
2026-04-20 12:33 5.43996 114.18875 33959 ft 463 kts 252°
2026-04-20 12:33 5.43063 114.15788 34232 ft 461 kts 252°
2026-04-20 12:33 5.42133 114.12710 34491 ft 460 kts 252°
2026-04-20 12:33 5.41294 114.09739 34744 ft 459 kts 254°
2026-04-20 12:34 5.40506 114.06605 35000 ft 458 kts 255°
2026-04-20 12:34 5.39847 114.03920 35203 ft 458 kts 255°
2026-04-20 12:34 5.39143 114.01072 35409 ft 458 kts 255°
2026-04-20 12:34 5.38340 113.97869 35650 ft 457 kts 255°
2026-04-20 12:35 5.37557 113.94780 35895 ft 456 kts 255°
2026-04-20 12:35 5.36771 113.91698 36141 ft 455 kts 255°
2026-04-20 12:35 5.35986 113.88626 36381 ft 455 kts 255°
2026-04-20 12:35 5.35200 113.85557 36614 ft 454 kts 255°
2026-04-20 12:36 5.34415 113.82491 36849 ft 453 kts 255°
2026-04-20 12:36 5.33654 113.79518 37069 ft 452 kts 255°
2026-04-20 12:36 5.32873 113.76466 37296 ft 451 kts 255°
2026-04-20 12:36 5.32149 113.73642 37515 ft 450 kts 255°
2026-04-20 12:37 5.31405 113.70737 37709 ft 450 kts 255°
2026-04-20 12:37 5.30696 113.67968 37880 ft 449 kts 255°
2026-04-20 12:37 5.29142 113.61903 37881 ft 447 kts 255°
2026-04-20 12:38 5.27594 113.55862 37881 ft 447 kts 255°
2026-04-20 12:38 5.26044 113.49819 37882 ft 448 kts 255°
2026-04-20 12:39 5.23758 113.40910 37883 ft 446 kts 255°
2026-04-20 12:40 5.22325 113.35330 37882 ft 446 kts 255°
2026-04-20 12:40 5.21128 113.30665 37879 ft 444 kts 255°
2026-04-20 12:41 5.19712 113.25154 37883 ft 447 kts 256°
2026-04-20 12:41 5.18311 113.19704 37883 ft 447 kts 256°
2026-04-20 12:42 5.16767 113.13696 37878 ft 444 kts 256°
2026-04-20 12:42 5.15390 113.08344 37884 ft 445 kts 256°
2026-04-20 12:43 5.13842 113.02324 37882 ft 445 kts 256°
2026-04-20 12:43 5.12295 112.96311 37883 ft 445 kts 256°
2026-04-20 12:44 5.10748 112.90302 37883 ft 445 kts 256°
2026-04-20 12:44 5.09203 112.84306 37882 ft 444 kts 256°
2026-04-20 12:45 5.07657 112.78307 37882 ft 444 kts 256°
2026-04-20 12:45 5.06113 112.72316 37879 ft 444 kts 256°
2026-04-20 12:46 5.04564 112.66311 37884 ft 445 kts 256°
2026-04-20 12:46 5.03016 112.60310 37882 ft 444 kts 256°
2026-04-20 12:47 5.01468 112.54315 37880 ft 444 kts 256°
2026-04-20 12:47 4.99919 112.48313 37875 ft 445 kts 256°
2026-04-20 12:48 4.98535 112.42951 37876 ft 444 kts 256°
2026-04-20 12:48 4.96986 112.36956 37879 ft 445 kts 256°
2026-04-20 12:49 4.95659 112.31824 37877 ft 445 kts 256°
2026-04-20 12:49 4.94106 112.25817 37877 ft 445 kts 256°
2026-04-20 12:50 4.92552 112.19809 37879 ft 444 kts 256°
2026-04-20 12:50 4.91001 112.13815 37884 ft 444 kts 256°
2026-04-20 12:51 4.89517 112.08084 37878 ft 444 kts 256°
2026-04-20 12:51 4.87964 112.02087 37881 ft 445 kts 256°
2026-04-20 12:52 4.86410 111.96087 37884 ft 444 kts 256°
2026-04-20 12:52 4.84932 111.90386 37883 ft 444 kts 256°
2026-04-20 12:53 4.83363 111.84327 37879 ft 444 kts 256°
2026-04-20 12:53 4.81837 111.78327 37881 ft 444 kts 256°
2026-04-20 12:54 4.80320 111.72329 37879 ft 444 kts 256°
2026-04-20 12:54 4.78799 111.66330 37881 ft 444 kts 256°
2026-04-20 12:55 4.77316 111.60492 37884 ft 444 kts 256°
2026-04-20 12:55 4.75792 111.54500 37887 ft 444 kts 256°
2026-04-20 12:56 4.74268 111.48507 37889 ft 443 kts 256°
2026-04-20 12:56 4.72742 111.42514 37891 ft 443 kts 256°
2026-04-20 12:57 4.71220 111.36537 37889 ft 443 kts 256°
2026-04-20 12:57 4.70038 111.31892 37887 ft 443 kts 256°
2026-04-20 12:58 4.68702 111.26646 37884 ft 443 kts 256°
2026-04-20 12:58 4.67316 111.21209 37881 ft 442 kts 256°
2026-04-20 12:59 4.65939 111.15803 37880 ft 442 kts 256°
2026-04-20 12:59 4.64469 111.10040 37880 ft 442 kts 256°
2026-04-20 13:00 4.62948 111.04074 37872 ft 442 kts 256°
2026-04-20 13:00 4.61505 110.98419 37881 ft 441 kts 256°
2026-04-20 13:01 4.59986 110.92465 37883 ft 441 kts 256°
2026-04-20 13:01 4.58464 110.86502 37879 ft 441 kts 256°
2026-04-20 13:02 4.56940 110.80537 37880 ft 442 kts 256°
2026-04-20 13:02 4.55418 110.74575 37876 ft 442 kts 256°
2026-04-20 13:03 4.53894 110.68614 37877 ft 442 kts 256°
2026-04-20 13:03 4.52370 110.62650 37875 ft 442 kts 256°
2026-04-20 13:04 4.50841 110.56675 37879 ft 442 kts 256°
2026-04-20 13:04 4.49314 110.50705 37881 ft 442 kts 256°
2026-04-20 13:05 4.47787 110.44737 37883 ft 443 kts 256°
2026-04-20 13:05 4.46257 110.38761 37884 ft 443 kts 256°
2026-04-20 13:06 4.44988 110.33808 37885 ft 443 kts 256°
2026-04-20 13:06 4.43831 110.29292 37886 ft 443 kts 256°
2026-04-20 13:07 4.42457 110.23932 37885 ft 443 kts 256°
2026-04-20 13:07 4.41260 110.19260 37883 ft 443 kts 256°
2026-04-20 13:08 4.39771 110.13455 37884 ft 443 kts 256°
2026-04-20 13:08 4.38249 110.07522 37885 ft 443 kts 256°
2026-04-20 13:09 4.36715 110.01546 37885 ft 442 kts 256°
2026-04-20 13:09 4.35184 109.95580 37885 ft 442 kts 256°
2026-04-20 13:10 4.33652 109.89616 37881 ft 442 kts 256°
2026-04-20 13:10 4.32121 109.83658 37879 ft 442 kts 256°
2026-04-20 13:11 4.30786 109.78461 37882 ft 442 kts 256°
2026-04-20 13:11 4.29262 109.72531 37879 ft 442 kts 256°
2026-04-20 13:12 4.27729 109.66573 37879 ft 442 kts 256°
2026-04-20 13:12 4.26265 109.60879 37877 ft 441 kts 256°
2026-04-20 13:13 4.24796 109.55187 37874 ft 441 kts 256°
2026-04-20 13:13 4.23347 109.49653 37877 ft 441 kts 256°
2026-04-20 13:14 4.21791 109.43704 37877 ft 442 kts 256°
2026-04-20 13:14 4.20235 109.37752 37881 ft 442 kts 256°
2026-04-20 13:15 4.18885 109.32587 37880 ft 442 kts 256°
2026-04-20 13:15 4.17450 109.27097 37878 ft 442 kts 256°
2026-04-20 13:16 4.15980 109.21477 37881 ft 442 kts 256°
2026-04-20 13:16 4.14498 109.15810 37879 ft 442 kts 256°
2026-04-20 13:17 4.12939 109.09854 37878 ft 442 kts 256°
2026-04-20 13:17 4.11380 109.03897 37877 ft 442 kts 256°
2026-04-20 13:18 4.09819 108.97937 37876 ft 442 kts 256°
2026-04-20 13:18 4.08260 108.91984 37876 ft 442 kts 256°
2026-04-20 13:19 4.06699 108.86020 37879 ft 442 kts 256°
2026-04-20 13:19 4.05138 108.80063 37880 ft 442 kts 256°
2026-04-20 13:20 4.03578 108.74112 37878 ft 442 kts 256°
2026-04-20 13:20 4.02015 108.68142 37871 ft 443 kts 256°
2026-04-20 13:21 4.00463 108.62174 37873 ft 443 kts 256°
2026-04-20 13:21 3.98912 108.56207 37869 ft 443 kts 256°
2026-04-20 13:22 3.97357 108.50236 37876 ft 443 kts 256°
2026-04-20 13:22 3.95857 108.44478 37871 ft 443 kts 256°
2026-04-20 13:23 3.94298 108.38496 37875 ft 444 kts 256°
2026-04-20 13:23 3.92922 108.33215 37881 ft 444 kts 256°
2026-04-20 13:24 3.91507 108.27789 37880 ft 444 kts 256°
2026-04-20 13:24 3.90018 108.22080 37878 ft 445 kts 256°
2026-04-20 13:25 3.88453 108.16081 37877 ft 445 kts 256°
2026-04-20 13:25 3.86884 108.10069 37877 ft 446 kts 256°
2026-04-20 13:26 3.85325 108.04097 37875 ft 447 kts 256°
2026-04-20 13:26 3.83742 107.98036 37874 ft 447 kts 256°
2026-04-20 13:27 3.82217 107.92198 37881 ft 448 kts 256°
2026-04-20 13:27 3.80772 107.86665 37883 ft 448 kts 256°
2026-04-20 13:28 3.79196 107.80638 37882 ft 447 kts 256°
2026-04-20 13:28 3.77623 107.74619 37882 ft 447 kts 256°
2026-04-20 13:29 3.76151 107.68991 37880 ft 447 kts 256°
2026-04-20 13:29 3.74823 107.63917 37879 ft 453 kts 256°
2026-04-20 13:30 3.73213 107.57764 37875 ft 461 kts 256°
2026-04-20 13:30 3.71579 107.51519 37878 ft 465 kts 256°
2026-04-20 13:31 3.69951 107.45301 37875 ft 465 kts 256°
2026-04-20 13:31 3.68310 107.39039 37878 ft 465 kts 256°
2026-04-20 13:32 3.66746 107.33068 37875 ft 465 kts 256°
2026-04-20 13:32 3.65339 107.27697 37878 ft 466 kts 256°
2026-04-20 13:33 3.63776 107.21736 37874 ft 464 kts 256°
2026-04-20 13:33 3.62134 107.15473 37876 ft 465 kts 256°
2026-04-20 13:34 3.60553 107.09441 37876 ft 465 kts 256°
2026-04-20 13:34 3.58911 107.03184 37879 ft 465 kts 256°
2026-04-20 13:35 3.57335 106.97107 37874 ft 464 kts 259°
2026-04-20 13:35 3.56501 106.90708 37877 ft 465 kts 263°
2026-04-20 13:36 3.55768 106.84510 37880 ft 462 kts 263°
2026-04-20 13:36 3.55000 106.78059 37879 ft 464 kts 263°
2026-04-20 13:37 3.54238 106.71684 37879 ft 464 kts 263°
2026-04-20 13:37 3.53469 106.65267 37879 ft 465 kts 263°
2026-04-20 13:38 3.52700 106.58843 37878 ft 465 kts 263°
2026-04-20 13:38 3.51929 106.52416 37878 ft 465 kts 263°
2026-04-20 13:39 3.51157 106.45979 37879 ft 465 kts 263°
2026-04-20 13:39 3.50385 106.39548 37883 ft 466 kts 263°
2026-04-20 13:40 3.49717 106.33981 37881 ft 466 kts 263°
2026-04-20 13:40 3.49037 106.28327 37878 ft 465 kts 263°
2026-04-20 13:41 3.48299 106.22182 37882 ft 466 kts 263°
2026-04-20 13:41 3.47524 106.15742 37878 ft 466 kts 263°
2026-04-20 13:42 3.46748 106.09290 37880 ft 466 kts 263°
2026-04-20 13:42 3.45583 105.99615 37878 ft 467 kts 263°
2026-04-20 13:43 3.44806 105.93169 37879 ft 467 kts 263°
2026-04-20 13:43 3.44073 105.87094 37879 ft 468 kts 263°
2026-04-20 13:44 3.43294 105.80636 37881 ft 468 kts 263°
2026-04-20 13:44 3.42513 105.74169 37881 ft 468 kts 263°
2026-04-20 13:45 3.41774 105.68050 37881 ft 468 kts 263°
2026-04-20 13:45 3.41005 105.61688 37881 ft 469 kts 263°
2026-04-20 13:46 3.40222 105.55208 37886 ft 470 kts 263°
2026-04-20 13:46 3.39492 105.49175 37883 ft 469 kts 263°
2026-04-20 13:47 3.38706 105.42689 37884 ft 470 kts 263°
2026-04-20 13:47 3.37965 105.36564 37883 ft 470 kts 263°
2026-04-20 13:48 3.37283 105.30942 37884 ft 469 kts 263°
2026-04-20 13:48 3.36548 105.24878 37888 ft 471 kts 263°
2026-04-20 13:49 3.35811 105.18804 37886 ft 471 kts 263°
2026-04-20 13:49 3.35021 105.12294 37887 ft 471 kts 263°
2026-04-20 13:50 3.34298 105.06345 37889 ft 472 kts 263°
2026-04-20 13:50 3.33535 105.00065 37890 ft 472 kts 263°
2026-04-20 13:51 3.32757 104.93664 37889 ft 459 kts 263°
2026-04-20 13:51 3.32252 104.89519 37889 ft 449 kts 263°
2026-04-20 13:52 3.31371 104.82274 37894 ft 456 kts 263°
2026-04-20 13:52 3.30671 104.76520 37892 ft 455 kts 263°
2026-04-20 13:53 3.29904 104.70227 37891 ft 456 kts 263°
2026-04-20 13:53 3.29300 104.65266 37893 ft 455 kts 263°
2026-04-20 13:54 3.28563 104.59224 37891 ft 456 kts 263°
2026-04-20 13:54 3.27794 104.52923 37895 ft 456 kts 263°
2026-04-20 13:55 3.27025 104.46619 37904 ft 457 kts 263°
2026-04-20 13:55 3.26259 104.40345 37905 ft 457 kts 263°
2026-04-20 13:56 3.25579 104.34785 37907 ft 457 kts 263°
2026-04-20 13:56 3.24870 104.28982 37881 ft 456 kts 263°
2026-04-20 13:57 3.24519 104.26115 37668 ft 452 kts 263°
2026-04-20 13:57 3.24176 104.23314 37202 ft 451 kts 263°
2026-04-20 13:57 3.23833 104.20510 36587 ft 452 kts 263°
2026-04-20 13:57 3.23451 104.17380 35854 ft 454 kts 263°
2026-04-20 13:58 3.23065 104.14233 35114 ft 456 kts 263°
2026-04-20 13:58 3.22679 104.11073 34393 ft 458 kts 263°
2026-04-20 13:58 3.22290 104.07898 33645 ft 460 kts 263°
2026-04-20 13:58 3.21899 104.04722 32904 ft 460 kts 263°
2026-04-20 13:59 3.21509 104.01539 32158 ft 460 kts 264°
2026-04-20 13:59 3.21124 103.98403 31399 ft 461 kts 264°
2026-04-20 13:59 3.20795 103.95722 30756 ft 462 kts 264°
2026-04-20 13:59 3.20407 103.92556 30056 ft 461 kts 264°
2026-04-20 14:00 3.20018 103.89387 29407 ft 457 kts 264°
2026-04-20 14:00 3.19633 103.86248 28786 ft 452 kts 264°
2026-04-20 14:00 3.19275 103.83333 28200 ft 448 kts 264°
2026-04-20 14:00 3.18898 103.80253 27588 ft 444 kts 264°
2026-04-20 14:01 3.18523 103.77202 26990 ft 440 kts 264°
2026-04-20 14:01 3.18170 103.74326 26431 ft 436 kts 264°
2026-04-20 14:01 3.17826 103.71519 25889 ft 433 kts 264°
2026-04-20 14:01 3.17459 103.68533 25322 ft 429 kts 264°
2026-04-20 14:02 3.17097 103.65583 24770 ft 426 kts 264°
2026-04-20 14:02 3.16737 103.62658 24215 ft 422 kts 264°
2026-04-20 14:02 3.16380 103.59753 23689 ft 419 kts 263°
2026-04-20 14:02 3.16063 103.57169 23196 ft 416 kts 263°
2026-04-20 14:03 3.15692 103.54457 22905 ft 410 kts 260°
2026-04-20 14:03 3.15016 103.51674 22644 ft 415 kts 253°
2026-04-20 14:03 3.14101 103.49185 22422 ft 415 kts 248°
2026-04-20 14:03 3.12985 103.46536 22163 ft 413 kts 248°
2026-04-20 14:04 3.12023 103.44223 21949 ft 411 kts 248°
2026-04-20 14:04 3.10901 103.41513 21696 ft 409 kts 248°
2026-04-20 14:04 3.09800 103.38853 21442 ft 408 kts 248°
2026-04-20 14:04 3.08787 103.36406 21225 ft 407 kts 248°
2026-04-20 14:05 3.07797 103.34016 21002 ft 406 kts 248°
2026-04-20 14:05 3.06717 103.31412 20764 ft 404 kts 248°
2026-04-20 14:05 3.05748 103.29074 20551 ft 403 kts 248°
2026-04-20 14:05 3.04752 103.26675 20335 ft 402 kts 248°
2026-04-20 14:06 3.03684 103.24099 20100 ft 400 kts 248°
2026-04-20 14:06 3.02788 103.21939 19906 ft 399 kts 248°
2026-04-20 14:06 3.01839 103.19651 19701 ft 398 kts 248°
2026-04-20 14:06 3.00874 103.17326 19487 ft 397 kts 248°
2026-04-20 14:07 2.99817 103.14780 19269 ft 396 kts 248°
2026-04-20 14:07 2.98776 103.12269 19049 ft 394 kts 248°
2026-04-20 14:07 2.97726 103.09739 18821 ft 393 kts 248°
2026-04-20 14:07 2.96678 103.07213 18599 ft 392 kts 248°
2026-04-20 14:08 2.95638 103.04708 18381 ft 391 kts 248°
2026-04-20 14:08 2.94595 103.02196 18158 ft 389 kts 248°
2026-04-20 14:08 2.93560 102.99701 17905 ft 388 kts 248°
2026-04-20 14:08 2.92538 102.97241 17651 ft 387 kts 248°
2026-04-20 14:09 2.91544 102.94845 17410 ft 386 kts 248°
2026-04-20 14:09 2.90519 102.92377 17154 ft 384 kts 248°
2026-04-20 14:09 2.89494 102.89909 16902 ft 383 kts 248°
2026-04-20 14:09 2.88573 102.87415 16677 ft 382 kts 251°
2026-04-20 14:10 2.87725 102.84900 16379 ft 381 kts 252°
2026-04-20 14:10 2.86887 102.82389 15893 ft 381 kts 252°
2026-04-20 14:10 2.86052 102.79887 15397 ft 377 kts 252°
2026-04-20 14:10 2.85225 102.77415 14903 ft 373 kts 252°
2026-04-20 14:11 2.84405 102.74967 14429 ft 370 kts 252°
2026-04-20 14:11 2.83590 102.72537 13951 ft 367 kts 252°
2026-04-20 14:11 2.82777 102.70114 13458 ft 367 kts 252°
2026-04-20 14:11 2.82120 102.68157 13029 ft 364 kts 252°
2026-04-20 14:12 2.81573 102.66525 12676 ft 362 kts 252°
2026-04-20 14:12 2.80824 102.64293 12208 ft 359 kts 252°
2026-04-20 14:12 2.79770 102.61154 11562 ft 353 kts 251°
2026-04-20 14:12 2.78994 102.58844 11091 ft 350 kts 251°
2026-04-20 14:13 2.78321 102.56840 10687 ft 347 kts 251°
2026-04-20 14:13 2.77847 102.55429 10422 ft 344 kts 251°
2026-04-20 14:13 2.77225 102.53575 10199 ft 336 kts 251°
2026-04-20 14:13 2.76482 102.51363 9965 ft 325 kts 251°
2026-04-20 14:14 2.75772 102.49251 9735 ft 316 kts 251°
2026-04-20 14:14 2.75084 102.47200 9476 ft 307 kts 251°
2026-04-20 14:14 2.74412 102.45201 9225 ft 299 kts 251°
2026-04-20 14:14 2.73759 102.43258 8972 ft 291 kts 252°
2026-04-20 14:15 2.73117 102.41344 8729 ft 292 kts 252°
2026-04-20 14:15 2.72469 102.39416 8484 ft 291 kts 252°
2026-04-20 14:15 2.71828 102.37508 8240 ft 289 kts 252°
2026-04-20 14:15 2.71288 102.35901 8035 ft 288 kts 252°
2026-04-20 14:16 2.70650 102.34001 7797 ft 287 kts 252°
2026-04-20 14:16 2.70015 102.32113 7583 ft 286 kts 252°
2026-04-20 14:16 2.69383 102.30231 7450 ft 285 kts 252°
2026-04-20 14:16 2.68751 102.28351 7339 ft 286 kts 252°
2026-04-20 14:17 2.68120 102.26473 7222 ft 285 kts 252°
2026-04-20 14:17 2.67532 102.24724 7108 ft 284 kts 252°
2026-04-20 14:17 2.66903 102.22853 6997 ft 284 kts 252°
2026-04-20 14:17 2.66278 102.20994 6914 ft 279 kts 252°
2026-04-20 14:18 2.65804 102.19586 6850 ft 271 kts 252°
2026-04-20 14:18 2.65276 102.18015 6774 ft 261 kts 252°
2026-04-20 14:18 2.64738 102.16414 6657 ft 252 kts 252°
2026-04-20 14:18 2.64184 102.14766 6445 ft 247 kts 252°
2026-04-20 14:19 2.63638 102.13141 6260 ft 248 kts 252°
2026-04-20 14:19 2.63089 102.11509 6066 ft 246 kts 252°
2026-04-20 14:19 2.62545 102.09890 5859 ft 246 kts 252°
2026-04-20 14:19 2.62001 102.08270 5671 ft 245 kts 252°
2026-04-20 14:20 2.61457 102.06651 5474 ft 245 kts 252°
2026-04-20 14:20 2.60916 102.05041 5286 ft 244 kts 252°
2026-04-20 14:20 2.60375 102.03434 5091 ft 244 kts 252°
2026-04-20 14:20 2.59836 102.01833 4900 ft 243 kts 252°
2026-04-20 14:21 2.59298 102.00232 4708 ft 243 kts 252°
2026-04-20 14:21 2.58736 101.98561 4528 ft 262 kts 252°
2026-04-20 14:21 2.58160 101.96848 4328 ft 256 kts 251°
2026-04-20 14:21 2.57643 101.95312 4138 ft 250 kts 251°
2026-04-20 14:22 2.57147 101.93837 3961 ft 245 kts 251°
2026-04-20 14:22 2.56652 101.92364 3778 ft 240 kts 251°
2026-04-20 14:22 2.56126 101.90802 3583 ft 235 kts 251°
2026-04-20 14:22 2.55610 101.89267 3364 ft 232 kts 251°
2026-04-20 14:23 2.55093 101.87730 3018 ft 235 kts 251°
2026-04-20 14:23 2.54576 101.86192 2790 ft 231 kts 251°
2026-04-20 14:23 2.54067 101.84680 2599 ft 227 kts 251°
2026-04-20 14:23 2.53724 101.83436 2488 ft 219 kts 264°
2026-04-20 14:24 2.53956 101.82003 2497 ft 204 kts 295°
2026-04-20 14:24 2.54723 101.80904 2484 ft 185 kts 313°
2026-04-20 14:24 2.55552 101.80172 2471 ft 160 kts 322°
2026-04-20 14:24 2.56342 101.79592 2498 ft 156 kts 324°
2026-04-20 14:25 2.57235 101.78975 2479 ft 155 kts 325°
2026-04-20 14:25 2.58133 101.78363 2486 ft 156 kts 325°
2026-04-20 14:25 2.58993 101.77781 2480 ft 155 kts 325°
2026-04-20 14:25 2.59892 101.77174 2459 ft 156 kts 325°
2026-04-20 14:26 2.60789 101.76567 2292 ft 155 kts 325°
2026-04-20 14:26 2.61680 101.75963 2096 ft 154 kts 325°